Weather History for Leeuwarden, Netherlands

Change the Weather History Date:

Saturday, April 28, 2012

  Actual Average Record
Temperature  
Mean Temperature 46 °F -  
Max Temperature 47 °F 59 °F 68 °F (2004)
Min Temperature 44 °F 45 °F 29 °F (2013)
Degree Days  
Heating Degree Days 20    
Moisture  
Dew Point 45 °F    
Average Humidity 96    
Maximum Humidity 100    
Minimum Humidity 86    
Precipitation  
Precipitation 0.35 in - - ()
Sea Level Pressure  
Sea Level Pressure 30.02 in    
Wind  
Wind Speed 12 mph ()    
Max Wind Speed 30 mph    
Max Gust Speed 41 mph    
Visibility 5.5 miles    
Events Rain    
Averages and records for this station are not official NWS values.
T = Trace of Precipitation, MM = Missing Value Source: Averaged Metar Reports

Daily Weather History Graph

Daily Weather History Graph

Search for Another Location

Airport:

Trip Planner

Search our weather history database for the weather conditions in past years. The results will help you decide how hot, cold, wet, or windy it might be!

Date:

Astronomy

Apr. 28, 2012 Rise Set
Actual Time 6:08 AM CEST 9:01 PM CEST
Civil Twilight 5:29 AM CEST 9:41 PM CEST
Nautical Twilight 4:37 AM CEST 10:33 PM CEST
Astronomical Twilight 3:31 AM CEST 11:40 PM CEST
Moon 11:25 AM CEST 2:24 AM CEST
Length of Visible Light 16h 12m
Length of Day
14h 52m
Waxing Crescent, 40% of the Moon is Illuminated
Apr 28
Waxing Crescent
Apr 29
First Quarter
May 6
Full
May 12
Last Quarter
May 21
New

Hourly Weather History & Observations

Time (CEST) Temp. Windchill Dew Point Humidity Pressure Visibility Wind Dir Wind Speed Gust Speed Precip Events Conditions
12:21 AM 46.4 °F 43.5 °F 46.4 °F 100% 30.04 in 2.5 mi ENE 5.8 mph - N/A   Scattered Clouds
12:25 AM 46.4 °F 43.5 °F 46.4 °F 100% 30.04 in 3.1 mi ENE 5.8 mph - N/A   Scattered Clouds
12:33 AM 44.6 °F 41.4 °F 44.6 °F 100% 30.04 in - ENE 5.8 mph - N/A   Overcast
12:37 AM 44.6 °F 41.4 °F 44.6 °F 100% 30.04 in 3.1 mi ENE 5.8 mph - N/A   Overcast
12:40 AM 44.6 °F 42.2 °F 44.6 °F 100% 30.06 in - ENE 4.6 mph - N/A   Overcast
12:47 AM 44.6 °F 42.2 °F 44.6 °F 100% 30.06 in 3.1 mi ENE 4.6 mph - N/A   Mostly Cloudy
12:48 AM 44.6 °F 42.2 °F 44.6 °F 100% 30.06 in - ENE 4.6 mph - N/A   Mostly Cloudy
12:55 AM 44.6 °F 42.2 °F 44.6 °F 100% 30.06 in - ENE 4.6 mph - N/A   Mostly Cloudy
12:59 AM 44.6 °F 41.4 °F 44.6 °F 100% 30.06 in 3.1 mi ENE 5.8 mph - N/A   Overcast
1:00 AM 44.6 °F 41.4 °F 44.6 °F 100% 30.06 in - ENE 5.8 mph - N/A   Overcast
1:15 AM 44.6 °F 41.4 °F 44.6 °F 100% 30.06 in 3.1 mi ENE 5.8 mph - N/A   Overcast
1:18 AM 44.6 °F 41.4 °F 44.6 °F 100% 30.06 in - ENE 5.8 mph - N/A   Overcast
1:25 AM 44.6 °F 42.2 °F 44.6 °F 100% 30.06 in 3.1 mi ENE 4.6 mph - N/A   Overcast
1:38 AM 46.4 °F 42.9 °F 44.6 °F 93% 30.06 in 3.1 mi ENE 6.9 mph - N/A   Overcast
1:55 AM 46.4 °F 43.5 °F 44.6 °F 93% 30.06 in 3.1 mi ENE 5.8 mph - N/A   Overcast
2:00 AM 46 °F - 45 °F 96% 30.07 in 3 mi ENE 6.7 mph - -   Mist
2:05 AM 46.4 °F 43.5 °F 44.6 °F 93% 30.06 in - ENE 5.8 mph - N/A   Overcast
2:14 AM 46.4 °F 44.3 °F 44.6 °F 93% 30.06 in 3.1 mi ENE 4.6 mph - N/A   Overcast
2:25 AM 46.4 °F 43.5 °F 44.6 °F 93% 30.06 in 3.1 mi ENE 5.8 mph - N/A   Overcast
2:30 AM 46.4 °F 43.5 °F 44.6 °F 93% 30.06 in - ENE 5.8 mph - N/A   Overcast
2:33 AM 46.4 °F 42.9 °F 44.6 °F 93% 30.06 in 3.1 mi ENE 6.9 mph - N/A   Overcast
2:47 AM 46.4 °F 42.4 °F 44.6 °F 93% 30.06 in 5.0 mi NE 8.1 mph - N/A   Overcast
2:51 AM 46.4 °F 42.4 °F 44.6 °F 93% 30.06 in 4.3 mi NE 8.1 mph - N/A   Overcast
2:55 AM 46.4 °F 42.4 °F 44.6 °F 93% 30.06 in 5.0 mi ENE 8.1 mph - N/A   Overcast
3:08 AM 46.4 °F 42.4 °F 44.6 °F 93% 30.06 in 5.0 mi ENE 8.1 mph - N/A   Overcast
3:17 AM 46.4 °F 42.4 °F 44.6 °F 93% 30.06 in 4.3 mi ENE 8.1 mph - N/A   Overcast
3:18 AM 46.4 °F 42.4 °F 44.6 °F 93% 30.06 in 5.0 mi ENE 8.1 mph - N/A   Overcast
3:25 AM 46.4 °F 42.4 °F 44.6 °F 93% 30.06 in 5.0 mi ENE 8.1 mph - N/A   Mostly Cloudy
3:28 AM 46.4 °F 42.4 °F 44.6 °F 93% 30.06 in 4.3 mi ENE 8.1 mph - N/A   Mostly Cloudy
3:44 AM 46.4 °F 41.9 °F 44.6 °F 93% 30.06 in 5.0 mi ENE 9.2 mph - N/A   Overcast
3:55 AM 46.4 °F 41.9 °F 46.4 °F 100% 30.06 in 5.6 mi ENE 9.2 mph - N/A   Overcast
4:08 AM 46.4 °F 41.9 °F 46.4 °F 100% 30.06 in 6.2 mi East 9.2 mph - N/A   Overcast
4:25 AM 46.4 °F 42.4 °F 46.4 °F 100% 30.06 in 6.2 mi East 8.1 mph - N/A   Mostly Cloudy
4:55 AM 46.4 °F 42.4 °F 46.4 °F 100% 30.06 in 6.2 mi East 8.1 mph - N/A   Overcast
5:25 AM 46.4 °F 42.4 °F 46.4 °F 100% 30.04 in 5.6 mi ENE 8.1 mph - N/A   Overcast
5:33 AM 46.4 °F 41.9 °F 46.4 °F 100% 30.04 in 5.6 mi ENE 9.2 mph - N/A   Overcast
5:44 AM 46.4 °F 41.5 °F 46.4 °F 100% 30.04 in 5.6 mi ENE 10.4 mph - N/A   Overcast
5:55 AM 46.4 °F 41.5 °F 46.4 °F 100% 30.04 in 5.0 mi ENE 10.4 mph - N/A   Mostly Cloudy
6:25 AM 46.4 °F 41.5 °F 46.4 °F 100% 30.04 in 6.2 mi NE 10.4 mph - N/A   Overcast
6:55 AM 46.4 °F 41.1 °F 46.4 °F 100% 30.01 in 6.2 mi NE 11.5 mph - N/A   Overcast
7:25 AM 48.2 °F - 46.4 °F 93% 30.01 in 6.2 mi NE 11.5 mph - N/A   Overcast
7:55 AM 48.2 °F - 48.2 °F 100% 30.01 in 5.6 mi NE 15.0 mph - N/A Rain Rain
8:00 AM 47 °F - 47 °F 100% 30.02 in 6 mi NE 13.4 mph - - Rain Light Rain Showers
8:05 AM 48.2 °F - 46.4 °F 93% 30.01 in 5.6 mi NE 13.8 mph - N/A Rain Light Rain
8:09 AM 48.2 °F - 46.4 °F 93% 30.01 in 5.6 mi NE 12.7 mph - N/A Rain Light Rain
8:13 AM 46.4 °F 41.1 °F 46.4 °F 100% 30.01 in 5.6 mi NE 11.5 mph - N/A Rain Light Rain Showers
8:25 AM 46.4 °F 41.1 °F 46.4 °F 100% 30.01 in 6.2 mi NE 11.5 mph - N/A Rain Light Rain
8:30 AM 46.4 °F 41.1 °F 46.4 °F 100% 30.01 in 6.2 mi NE 11.5 mph - N/A Rain Light Rain
8:32 AM 46.4 °F 41.1 °F 46.4 °F 100% 30.04 in 5.6 mi NE 11.5 mph - N/A Rain Light Rain Showers
8:39 AM 46.4 °F 40.7 °F 46.4 °F 100% 30.04 in 5.0 mi NE 12.7 mph - N/A Rain Light Rain
8:55 AM 46.4 °F 40.4 °F 46.4 °F 100% 30.01 in 3.7 mi NE 13.8 mph - N/A Rain Rain Showers
8:59 AM 46.4 °F 40.1 °F 46.4 °F 100% 30.01 in 3.7 mi NE 15.0 mph - N/A Rain Rain
9:08 AM 46.4 °F 40.4 °F 46.4 °F 100% 30.01 in 3.7 mi NE 13.8 mph - N/A Rain Light Rain Showers
9:12 AM 46.4 °F 40.4 °F 46.4 °F 100% 30.01 in 4.3 mi NE 13.8 mph - N/A Rain Rain
9:16 AM 46.4 °F 40.4 °F 46.4 °F 100% 30.01 in 3.7 mi NE 13.8 mph - N/A Rain Rain
9:25 AM 46.4 °F 40.4 °F 46.4 °F 100% 30.04 in 3.7 mi NE 13.8 mph - N/A Rain Rain Showers
9:49 AM 46.4 °F 39.5 °F 46.4 °F 100% 30.01 in 3.7 mi NE 17.3 mph - N/A Rain Light Rain Showers
9:55 AM 46.4 °F 39.5 °F 46.4 °F 100% 30.01 in 3.7 mi NE 17.3 mph - N/A Rain Light Rain Showers
9:59 AM 46.4 °F 39.2 °F 46.4 °F 100% 30.01 in 3.7 mi NE 18.4 mph - N/A Rain Light Rain Showers
10:07 AM 46.4 °F 38.7 °F 46.4 °F 100% 29.98 in 6.2 mi NE 20.7 mph - N/A Rain Light Rain
10:25 AM 46.4 °F 39.5 °F 46.4 °F 100% 30.01 in 6.2 mi NE 17.3 mph - N/A Rain Light Rain
10:48 AM 46.4 °F 39.2 °F 46.4 °F 100% 30.01 in 6.2 mi NE 18.4 mph - N/A Rain Light Rain
10:55 AM 46.4 °F 39.0 °F 46.4 °F 100% 30.01 in 6.2 mi NE 19.6 mph - N/A Rain Light Rain
11:05 AM 46.4 °F 39.0 °F 46.4 °F 100% 30.01 in 6.2 mi NNE 19.6 mph - N/A Rain Light Rain
11:07 AM 46.4 °F 39.0 °F 46.4 °F 100% 30.01 in 6.2 mi NNE 19.6 mph - N/A Rain Light Rain
11:12 AM 46.4 °F 39.2 °F 46.4 °F 100% 30.01 in 6.2 mi NNE 18.4 mph - N/A Rain Light Rain
11:13 AM 46.4 °F 39.2 °F 46.4 °F 100% 30.01 in 6.2 mi NNE 18.4 mph - N/A Rain Light Rain
11:18 AM 46.4 °F 39.0 °F 46.4 °F 100% 30.01 in 6.2 mi NNE 19.6 mph - N/A Rain Light Rain
11:25 AM 46.4 °F 38.5 °F 46.4 °F 100% 30.01 in 6.2 mi NE 21.9 mph - N/A Rain Light Rain
11:29 AM 46.4 °F 38.3 °F 46.4 °F 100% 30.01 in 6.2 mi NE 23.0 mph - N/A Rain Light Rain
11:30 AM 46.4 °F 38.1 °F 46.4 °F 100% 30.01 in 6.2 mi NE 24.2 mph - N/A Rain Light Rain
11:37 AM 46.4 °F 38.1 °F 46.4 °F 100% 29.98 in 6.2 mi NE 24.2 mph - N/A Rain Light Rain
11:46 AM 46.4 °F 38.3 °F 46.4 °F 100% 29.98 in 6.2 mi NE 23.0 mph - N/A Rain Light Rain
11:55 AM 46.4 °F 38.7 °F 46.4 °F 100% 29.98 in 6.2 mi NE 20.7 mph - N/A   Overcast
12:00 PM 46.4 °F 39.2 °F 46.4 °F 100% 29.98 in 6.2 mi NNE 18.4 mph - N/A   Light Drizzle
12:25 PM 46.4 °F 37.5 °F 46.4 °F 100% 29.98 in 6.2 mi NE 27.6 mph - N/A   Light Drizzle
12:26 PM 46.4 °F 37.2 °F 46.4 °F 100% 29.98 in 6.2 mi NE 29.9 mph 41.4 mph N/A   Light Drizzle
12:55 PM 46.4 °F 37.7 °F 44.6 °F 93% 29.98 in 6.2 mi NE 26.5 mph - N/A   Overcast
1:25 PM 46.4 °F 38.1 °F 44.6 °F 93% 29.98 in 6.2 mi NE 24.2 mph - N/A   Overcast
1:36 PM 46.4 °F 39.0 °F 44.6 °F 93% 30.01 in 6.2 mi NE 19.6 mph - N/A   Overcast
1:40 PM 46.4 °F 38.7 °F 44.6 °F 93% 30.01 in 6.2 mi NE 20.7 mph - N/A   Overcast
1:50 PM 46.4 °F 37.9 °F 44.6 °F 93% 30.01 in 6.2 mi NE 25.3 mph - N/A   Overcast
1:55 PM 46.4 °F 37.9 °F 44.6 °F 93% 30.01 in 6.2 mi NE 25.3 mph - N/A   Overcast
2:00 PM 47 °F - 45 °F 88% 30.01 in 9 mi NE 24.6 mph - -   Partly Cloudy
2:25 PM 46.4 °F 37.9 °F 44.6 °F 93% 30.01 in 6.2 mi NE 25.3 mph - N/A   Overcast
2:55 PM 46.4 °F 38.1 °F 44.6 °F 93% 30.01 in 6.2 mi NE 24.2 mph - N/A   Overcast
3:09 PM 46.4 °F 38.1 °F 44.6 °F 93% 30.01 in 6.2 mi NE 24.2 mph - N/A   Overcast
3:25 PM 46.4 °F 38.1 °F 44.6 °F 93% 30.01 in 6.2 mi NE 24.2 mph 35.7 mph N/A   Overcast
3:55 PM 46.4 °F 37.7 °F 44.6 °F 93% 29.98 in 6.2 mi NE 26.5 mph - N/A   Overcast
4:25 PM 46.4 °F 38.1 °F 42.8 °F 87% 29.98 in 6.2 mi NE 24.2 mph 35.7 mph N/A   Overcast
4:29 PM 46.4 °F 38.3 °F 42.8 °F 87% 29.98 in 3.1 mi NE 23.0 mph - N/A   Overcast
4:39 PM 46.4 °F 37.9 °F 42.8 °F 87% 29.98 in 6.2 mi NE 25.3 mph - N/A   Overcast
4:55 PM 46.4 °F 37.7 °F 42.8 °F 87% 29.98 in 6.2 mi NE 26.5 mph - N/A   Overcast
5:12 PM 46.4 °F 37.7 °F 42.8 °F 87% 29.95 in 6.2 mi NE 26.5 mph - N/A   Overcast
5:25 PM 46.4 °F 37.5 °F 42.8 °F 87% 29.98 in 6.2 mi NE 27.6 mph 39.1 mph N/A   Overcast
5:55 PM 46.4 °F 38.1 °F 42.8 °F 87% 29.98 in 6.2 mi NE 24.2 mph - N/A   Overcast
6:25 PM 44.6 °F 35.5 °F 42.8 °F 93% 30.01 in 6.2 mi NE 25.3 mph - N/A   Overcast
6:55 PM 44.6 °F 36.1 °F 42.8 °F 93% 30.01 in 6.2 mi NE 21.9 mph - N/A Rain Light Drizzle
7:25 PM 44.6 °F 35.5 °F 42.8 °F 93% 29.98 in 6.2 mi NE 25.3 mph - N/A   Overcast
7:55 PM 44.6 °F 36.1 °F 42.8 °F 93% 29.98 in 6.2 mi NE 21.9 mph - N/A   Overcast
8:00 PM 45 °F - 42 °F 86% 30.00 in 12 mi NE 22.4 mph - - Rain Rain
8:25 PM 44.6 °F 35.9 °F 42.8 °F 93% 29.98 in 6.2 mi NE 23.0 mph - N/A   Overcast
8:55 PM 44.6 °F 36.1 °F 42.8 °F 93% 30.01 in 6.2 mi NE 21.9 mph - N/A   Overcast
9:25 PM 44.6 °F 35.7 °F 42.8 °F 93% 30.01 in 6.2 mi NE 24.2 mph - N/A   Overcast
9:47 PM 44.6 °F 35.9 °F 42.8 °F 93% 30.01 in 6.2 mi NE 23.0 mph - N/A   Overcast
9:55 PM 46.4 °F 38.7 °F 42.8 °F 87% 30.01 in 6.2 mi NE 20.7 mph - N/A   Overcast
9:56 PM 46.4 °F 38.7 °F 42.8 °F 87% 30.01 in 6.2 mi NE 20.7 mph - N/A   Overcast
10:05 PM 44.6 °F 35.9 °F 41.0 °F 87% 30.01 in 6.2 mi NE 23.0 mph - N/A   Overcast
10:11 PM 44.6 °F 35.9 °F 41.0 °F 87% 30.01 in 6.2 mi NE 23.0 mph - N/A   Mostly Cloudy
10:25 PM 44.6 °F 35.9 °F 41.0 °F 87% 29.98 in 6.2 mi NE 23.0 mph - N/A   Mostly Cloudy
10:31 PM 44.6 °F 35.7 °F 41.0 °F 87% 29.98 in 6.2 mi NE 24.2 mph - N/A   Mostly Cloudy
10:36 PM 44.6 °F 35.9 °F 42.8 °F 93% 29.98 in 6.2 mi NE 23.0 mph - N/A   Mostly Cloudy
10:46 PM 44.6 °F 35.9 °F 42.8 °F 93% 29.98 in 6.2 mi NE 23.0 mph - N/A   Mostly Cloudy
10:55 PM 44.6 °F 35.7 °F 42.8 °F 93% 29.98 in 6.2 mi NE 24.2 mph - N/A   Mostly Cloudy
11:25 PM 44.6 °F 35.3 °F 42.8 °F 93% 29.95 in 6.2 mi ENE 26.5 mph - N/A   Mostly Cloudy
11:55 PM 44.6 °F 35.7 °F 42.8 °F 93% 29.95 in 6.2 mi ENE 24.2 mph - N/A   Light Drizzle